ACA7213 KAUS-MMSD

Flight info

Callsign ACA7213
Flight time 2h 10m
Altitude 40000
Route BNDIA3 BNDIA DCT PNG UJ31 MOV UJ20 DGO UT71 TENAY TENAY1B
Aircraft B77L/H-SDE1E2E3FGHIJ2J3J4J5M1RWXY/LB1D1

Departure

Time 2026-04-19 03:28
Airport Austin Bergstrom International Airport (KAUS)

Arrival

Time 2026-04-19 05:38
Airport Los Cabos International Airport (MMSD)
Time Latitude Longitude Altitude Speed Heading
2026-04-19 03:10 30.20166 -97.67108 495 ft 0 kts 58°
2026-04-19 03:18 30.20156 -97.67126 532 ft 4 kts 58°
2026-04-19 03:18 30.20142 -97.67153 532 ft 4 kts 58°
2026-04-19 03:18 30.20129 -97.67177 532 ft 2 kts 58°
2026-04-19 03:18 30.20121 -97.67200 532 ft 4 kts 110°
2026-04-19 03:19 30.20137 -97.67218 532 ft 4 kts 157°
2026-04-19 03:19 30.20152 -97.67225 532 ft 1 kts 159°
2026-04-19 03:19 30.20154 -97.67225 532 ft 0 kts 159°
2026-04-19 03:22 30.20148 -97.67223 532 ft 3 kts 161°
2026-04-19 03:22 30.20093 -97.67238 532 ft 8 kts 233°
2026-04-19 03:22 30.20090 -97.67271 532 ft 0 kts 269°
2026-04-19 03:22 30.20086 -97.67286 532 ft 7 kts 253°
2026-04-19 03:23 30.20029 -97.67331 532 ft 17 kts 189°
2026-04-19 03:23 30.19891 -97.67333 532 ft 21 kts 178°
2026-04-19 03:23 30.19792 -97.67330 532 ft 21 kts 178°
2026-04-19 03:23 30.19646 -97.67324 532 ft 21 kts 178°
2026-04-19 03:24 30.19500 -97.67318 532 ft 21 kts 180°
2026-04-19 03:24 30.19353 -97.67319 532 ft 21 kts 180°
2026-04-19 03:24 30.19206 -97.67315 532 ft 21 kts 179°
2026-04-19 03:24 30.19060 -97.67311 532 ft 21 kts 178°
2026-04-19 03:25 30.18914 -97.67307 532 ft 21 kts 178°
2026-04-19 03:25 30.18767 -97.67302 532 ft 21 kts 178°
2026-04-19 03:25 30.18621 -97.67298 532 ft 21 kts 178°
2026-04-19 03:25 30.18443 -97.67292 532 ft 35 kts 178°
2026-04-19 03:26 30.18197 -97.67284 532 ft 19 kts 180°
2026-04-19 03:26 30.18073 -97.67296 532 ft 18 kts 196°
2026-04-19 03:26 30.18021 -97.67414 532 ft 18 kts 264°
2026-04-19 03:26 30.18018 -97.67554 532 ft 18 kts 269°
2026-04-19 03:27 30.18016 -97.67697 531 ft 18 kts 269°
2026-04-19 03:27 30.18014 -97.67810 531 ft 11 kts 269°
2026-04-19 03:27 30.18068 -97.67857 531 ft 11 kts
2026-04-19 03:27 30.18173 -97.67853 530 ft 30 kts 359°
2026-04-19 03:28 30.18774 -97.67869 533 ft 144 kts 358°
2026-04-19 03:28 30.20007 -97.67920 1206 ft 186 kts 358°
2026-04-19 03:28 30.21237 -97.68273 2846 ft 182 kts 340°
2026-04-19 03:28 30.22189 -97.69351 4247 ft 212 kts 304°
2026-04-19 03:29 30.22476 -97.71203 5096 ft 264 kts 264°
2026-04-19 03:29 30.21749 -97.73108 5411 ft 260 kts 234°
2026-04-19 03:29 30.20662 -97.74640 5790 ft 235 kts 234°
2026-04-19 03:29 30.19909 -97.76278 5946 ft 232 kts 259°
2026-04-19 03:30 30.19287 -97.78084 6425 ft 262 kts 233°
2026-04-19 03:30 30.17892 -97.79549 7068 ft 281 kts 220°
2026-04-19 03:30 30.16400 -97.81004 8225 ft 278 kts 225°
2026-04-19 03:30 30.15011 -97.82516 9662 ft 272 kts 227°
2026-04-19 03:31 30.13668 -97.84077 10798 ft 277 kts 229°
2026-04-19 03:31 30.12287 -97.85749 11402 ft 302 kts 229°
2026-04-19 03:31 30.10770 -97.87632 11664 ft 337 kts 230°
2026-04-19 03:31 30.09117 -97.89714 12094 ft 362 kts 230°
2026-04-19 03:32 30.07394 -97.91892 13059 ft 371 kts 230°
2026-04-19 03:32 30.05644 -97.94106 14158 ft 376 kts 230°
2026-04-19 03:32 30.03876 -97.96344 15182 ft 378 kts 230°
2026-04-19 03:32 30.02107 -97.98582 16346 ft 376 kts 230°
2026-04-19 03:33 30.00343 -98.00815 17483 ft 377 kts 230°
2026-04-19 03:33 29.98567 -98.03066 18465 ft 381 kts 230°
2026-04-19 03:33 29.96772 -98.05341 19275 ft 386 kts 230°
2026-04-19 03:33 29.94952 -98.07646 20054 ft 391 kts 230°
2026-04-19 03:34 29.93110 -98.09976 20864 ft 395 kts 230°
2026-04-19 03:34 29.91249 -98.12328 21650 ft 399 kts 230°
2026-04-19 03:34 29.89370 -98.14700 22432 ft 403 kts 230°
2026-04-19 03:34 29.87470 -98.17097 23170 ft 408 kts 230°
2026-04-19 03:35 29.85573 -98.19490 23861 ft 413 kts 230°
2026-04-19 03:35 29.83618 -98.21956 24367 ft 420 kts 230°
2026-04-19 03:35 29.81642 -98.24444 25048 ft 421 kts 230°
2026-04-19 03:35 29.79636 -98.26967 25803 ft 421 kts 230°
2026-04-19 03:36 29.77682 -98.29426 26522 ft 423 kts 230°
2026-04-19 03:36 29.75690 -98.31930 27169 ft 426 kts 230°
2026-04-19 03:36 29.73683 -98.34453 27779 ft 429 kts 230°
2026-04-19 03:36 29.71665 -98.36988 28474 ft 430 kts 230°
2026-04-19 03:37 29.69641 -98.39529 29139 ft 431 kts 230°
2026-04-19 03:37 29.67606 -98.42081 29713 ft 434 kts 230°
2026-04-19 03:37 29.65631 -98.44718 30267 ft 436 kts 233°
2026-04-19 03:37 29.63843 -98.47539 30688 ft 438 kts 237°
2026-04-19 03:38 29.62236 -98.50521 31088 ft 440 kts 241°
2026-04-19 03:38 29.60782 -98.53610 31582 ft 439 kts 242°
2026-04-19 03:38 29.59335 -98.56682 32166 ft 436 kts 242°
2026-04-19 03:38 29.57894 -98.59729 32794 ft 432 kts 241°
2026-04-19 03:39 29.56461 -98.62751 33401 ft 429 kts 241°
2026-04-19 03:39 29.55035 -98.65752 33942 ft 427 kts 241°
2026-04-19 03:39 29.53610 -98.68741 34327 ft 428 kts 241°
2026-04-19 03:39 29.52175 -98.71748 34641 ft 429 kts 241°
2026-04-19 03:40 29.50760 -98.74710 35542 ft 415 kts 241°
2026-04-19 03:40 29.49394 -98.77568 36460 ft 404 kts 240°
2026-04-19 03:40 29.48048 -98.80378 37009 ft 400 kts 240°
2026-04-19 03:40 29.46709 -98.83173 37415 ft 399 kts 240°
2026-04-19 03:41 29.45371 -98.85963 37832 ft 398 kts 240°
2026-04-19 03:41 29.44041 -98.88736 38255 ft 396 kts 240°
2026-04-19 03:41 29.42717 -98.91493 38716 ft 393 kts 240°
2026-04-19 03:41 29.41404 -98.94227 39114 ft 390 kts 240°
2026-04-19 03:42 29.40111 -98.96917 39348 ft 391 kts 240°
2026-04-19 03:42 29.38796 -98.99652 39548 ft 392 kts 240°
2026-04-19 03:42 29.37476 -99.02392 39795 ft 393 kts 240°
2026-04-19 03:42 29.36158 -99.05130 40056 ft 393 kts 240°
2026-04-19 03:43 29.34833 -99.07878 40214 ft 395 kts 240°
2026-04-19 03:43 29.32169 -99.13401 40313 ft 395 kts 240°
2026-04-19 03:44 29.29532 -99.18859 40314 ft 388 kts 240°
2026-04-19 03:44 29.26924 -99.24249 40315 ft 386 kts 240°
2026-04-19 03:45 29.24322 -99.29620 40287 ft 385 kts 240°
2026-04-19 03:45 29.21720 -99.34983 40268 ft 385 kts 240°
2026-04-19 03:46 29.19112 -99.40352 40215 ft 386 kts 240°
2026-04-19 03:46 29.16497 -99.45729 40243 ft 387 kts 240°
2026-04-19 03:47 29.13869 -99.51125 40264 ft 389 kts 240°
2026-04-19 03:47 29.11230 -99.56537 40286 ft 390 kts 240°
2026-04-19 03:48 29.08582 -99.61958 40298 ft 391 kts 240°
2026-04-19 03:48 29.05924 -99.67395 40294 ft 392 kts 240°
2026-04-19 03:49 29.03259 -99.72838 40288 ft 392 kts 240°
2026-04-19 03:49 29.00590 -99.78281 40272 ft 393 kts 240°
2026-04-19 03:50 28.97918 -99.83724 40283 ft 393 kts 240°
2026-04-19 03:50 28.95243 -99.89167 40242 ft 393 kts 240°
2026-04-19 03:51 28.92567 -99.94602 40215 ft 392 kts 240°
2026-04-19 03:51 28.89909 -99.99995 40204 ft 392 kts 240°
2026-04-19 03:52 28.87236 -100.05411 40178 ft 391 kts 240°
2026-04-19 03:52 28.84568 -100.10810 40197 ft 390 kts 240°
2026-04-19 03:53 28.81901 -100.16199 40197 ft 390 kts 240°
2026-04-19 03:53 28.79230 -100.21590 40209 ft 391 kts 240°
2026-04-19 03:54 28.76555 -100.26981 40207 ft 391 kts 240°
2026-04-19 03:54 28.73874 -100.32377 40210 ft 391 kts 240°
2026-04-19 03:55 28.71190 -100.37776 40212 ft 392 kts 240°
2026-04-19 03:55 28.68499 -100.43180 40213 ft 392 kts 240°
2026-04-19 03:56 28.65794 -100.48579 40210 ft 392 kts 238°
2026-04-19 03:56 28.62179 -100.53223 40211 ft 395 kts 225°
2026-04-19 03:57 28.57760 -100.56991 40208 ft 403 kts 213°
2026-04-19 03:57 28.52724 -100.59837 40198 ft 405 kts 212°
2026-04-19 03:58 28.47650 -100.62631 40209 ft 405 kts 212°
2026-04-19 03:58 28.42583 -100.65453 40212 ft 406 kts 212°
2026-04-19 03:59 28.37518 -100.68297 40214 ft 406 kts 212°
2026-04-19 03:59 28.32452 -100.71149 40217 ft 406 kts 212°
2026-04-19 04:00 28.27383 -100.74001 40221 ft 407 kts 212°
2026-04-19 04:00 28.22314 -100.76850 40200 ft 406 kts 212°
2026-04-19 04:01 28.17259 -100.79687 40218 ft 405 kts 212°
2026-04-19 04:01 28.09685 -100.83933 40221 ft 405 kts 212°
2026-04-19 04:02 28.04637 -100.86759 40225 ft 405 kts 212°
2026-04-19 04:02 27.99592 -100.89580 40235 ft 404 kts 212°
2026-04-19 04:03 27.94580 -100.92381 40234 ft 405 kts 212°
2026-04-19 04:03 27.89537 -100.95195 40228 ft 404 kts 212°
2026-04-19 04:04 27.84494 -100.98007 40230 ft 404 kts 212°
2026-04-19 04:04 27.79449 -101.00817 40235 ft 404 kts 212°
2026-04-19 04:05 27.74404 -101.03624 40242 ft 404 kts 212°
2026-04-19 04:05 27.69358 -101.06428 40245 ft 404 kts 212°
2026-04-19 04:06 27.64311 -101.09230 40243 ft 404 kts 212°
2026-04-19 04:06 27.59261 -101.12031 40232 ft 404 kts 212°
2026-04-19 04:07 27.54217 -101.14826 40240 ft 404 kts 212°
2026-04-19 04:07 27.49173 -101.17618 40243 ft 404 kts 212°
2026-04-19 04:08 27.44125 -101.20409 40244 ft 404 kts 212°
2026-04-19 04:08 27.39072 -101.23201 40246 ft 405 kts 212°
2026-04-19 04:09 27.34870 -101.25519 40246 ft 405 kts 212°
2026-04-19 04:09 27.29815 -101.28306 40247 ft 405 kts 212°
2026-04-19 04:10 27.24759 -101.31092 40268 ft 405 kts 212°
2026-04-19 04:10 27.19692 -101.33879 40255 ft 406 kts 212°
2026-04-19 04:11 27.14620 -101.36668 40253 ft 406 kts 212°
2026-04-19 04:11 27.09546 -101.39455 40258 ft 406 kts 212°
2026-04-19 04:12 27.04467 -101.42242 40260 ft 406 kts 212°
2026-04-19 04:12 26.99425 -101.45080 40231 ft 403 kts 216°
2026-04-19 04:13 26.95029 -101.48803 40250 ft 397 kts 224°
2026-04-19 04:13 26.91201 -101.53220 40274 ft 394 kts 232°
2026-04-19 04:14 26.87818 -101.58062 40258 ft 395 kts 233°
2026-04-19 04:14 26.84434 -101.62920 40254 ft 396 kts 233°
2026-04-19 04:15 26.81025 -101.67769 40262 ft 397 kts 233°
2026-04-19 04:15 26.77598 -101.72623 40266 ft 398 kts 233°
2026-04-19 04:16 26.74153 -101.77489 40252 ft 399 kts 232°
2026-04-19 04:16 26.70706 -101.82361 40249 ft 400 kts 232°
2026-04-19 04:17 26.67246 -101.87242 40197 ft 401 kts 232°
2026-04-19 04:17 26.63784 -101.92118 40219 ft 400 kts 233°
2026-04-19 04:18 26.60326 -101.96975 40227 ft 399 kts 232°
2026-04-19 04:18 26.56863 -102.01835 40211 ft 400 kts 232°
2026-04-19 04:19 26.53400 -102.06695 40200 ft 401 kts 232°
2026-04-19 04:19 26.49921 -102.11571 40192 ft 402 kts 232°
2026-04-19 04:20 26.46434 -102.16450 40179 ft 402 kts 232°
2026-04-19 04:20 26.42945 -102.21330 40157 ft 402 kts 232°
2026-04-19 04:21 26.39455 -102.26205 40152 ft 402 kts 232°
2026-04-19 04:21 26.35965 -102.31073 40151 ft 402 kts 232°
2026-04-19 04:22 26.32477 -102.35934 40080 ft 401 kts 232°
2026-04-19 04:22 26.29021 -102.40750 40120 ft 401 kts 232°
2026-04-19 04:23 26.25525 -102.45611 40110 ft 403 kts 232°
2026-04-19 04:23 26.22015 -102.50484 40098 ft 404 kts 232°
2026-04-19 04:24 26.18501 -102.55361 40076 ft 404 kts 232°
2026-04-19 04:24 26.14986 -102.60239 40082 ft 404 kts 232°
2026-04-19 04:25 26.11463 -102.65118 40052 ft 404 kts 232°
2026-04-19 04:25 26.07927 -102.70001 40064 ft 406 kts 232°
2026-04-19 04:26 26.04392 -102.74889 40033 ft 405 kts 232°
2026-04-19 04:26 26.00875 -102.79747 40008 ft 402 kts 232°
2026-04-19 04:27 25.97365 -102.84588 40002 ft 402 kts 232°
2026-04-19 04:27 25.93857 -102.89421 40014 ft 402 kts 232°
2026-04-19 04:28 25.90344 -102.94256 39976 ft 402 kts 232°
2026-04-19 04:28 25.86825 -102.99095 39971 ft 403 kts 232°
2026-04-19 04:29 25.83298 -103.03939 39966 ft 404 kts 232°
2026-04-19 04:29 25.79766 -103.08789 39956 ft 404 kts 232°
2026-04-19 04:30 25.76233 -103.13642 39941 ft 405 kts 232°
2026-04-19 04:30 25.72688 -103.18508 39969 ft 406 kts 232°
2026-04-19 04:31 25.69133 -103.23382 40002 ft 406 kts 232°
2026-04-19 04:31 25.65570 -103.28262 40009 ft 408 kts 232°
2026-04-19 04:32 25.61993 -103.33157 40028 ft 409 kts 232°
2026-04-19 04:32 25.58383 -103.38030 40032 ft 409 kts 229°
2026-04-19 04:33 25.54254 -103.42387 40026 ft 411 kts 223°
2026-04-19 04:33 25.49646 -103.46169 40016 ft 412 kts 218°
2026-04-19 04:34 25.44956 -103.49820 40013 ft 412 kts 219°
2026-04-19 04:34 25.40260 -103.53498 39990 ft 414 kts 218°
2026-04-19 04:35 25.35556 -103.57182 39950 ft 415 kts 218°
2026-04-19 04:35 25.30836 -103.60875 39898 ft 416 kts 218°
2026-04-19 04:36 25.26123 -103.64583 39902 ft 415 kts 218°
2026-04-19 04:36 25.21419 -103.68271 39893 ft 414 kts 218°
2026-04-19 04:37 25.16755 -103.71925 39887 ft 413 kts 218°
2026-04-19 04:37 25.12080 -103.75588 39891 ft 412 kts 218°
2026-04-19 04:38 25.07407 -103.79249 39883 ft 411 kts 218°
2026-04-19 04:38 25.02744 -103.82898 39889 ft 410 kts 218°
2026-04-19 04:39 24.98085 -103.86541 39901 ft 411 kts 218°
2026-04-19 04:39 24.93430 -103.90176 39894 ft 409 kts 218°
2026-04-19 04:40 24.88794 -103.93796 39873 ft 408 kts 218°
2026-04-19 04:40 24.84175 -103.97387 39905 ft 404 kts 218°
2026-04-19 04:41 24.79585 -104.00968 39878 ft 405 kts 218°
2026-04-19 04:41 24.74986 -104.04549 39886 ft 405 kts 218°
2026-04-19 04:42 24.70379 -104.08128 39874 ft 406 kts 218°
2026-04-19 04:42 24.65765 -104.11706 39876 ft 406 kts 218°
2026-04-19 04:43 24.61146 -104.15278 39878 ft 406 kts 218°
2026-04-19 04:43 24.56519 -104.18855 39888 ft 407 kts 218°
2026-04-19 04:44 24.51884 -104.22434 39870 ft 408 kts 218°
2026-04-19 04:44 24.47274 -104.25994 39876 ft 408 kts 218°
2026-04-19 04:45 24.42619 -104.29584 39889 ft 409 kts 218°
2026-04-19 04:45 24.37953 -104.33179 39885 ft 410 kts 218°
2026-04-19 04:46 24.33274 -104.36773 39882 ft 411 kts 218°
2026-04-19 04:46 24.28574 -104.40354 39878 ft 412 kts 218°
2026-04-19 04:47 24.23863 -104.43941 39889 ft 413 kts 218°
2026-04-19 04:47 24.19145 -104.47532 39878 ft 414 kts 218°
2026-04-19 04:48 24.15003 -104.51777 39913 ft 408 kts 233°
2026-04-19 04:48 24.11946 -104.57011 39895 ft 409 kts 245°
2026-04-19 04:49 24.09964 -104.62858 39905 ft 411 kts 248°
2026-04-19 04:49 24.08069 -104.68760 39913 ft 412 kts 248°
2026-04-19 04:50 24.06150 -104.74662 39932 ft 412 kts 248°
2026-04-19 04:50 24.04206 -104.80550 39913 ft 412 kts 248°
2026-04-19 04:51 24.02250 -104.86436 39932 ft 412 kts 248°
2026-04-19 04:51 24.00301 -104.92279 39936 ft 412 kts 248°
2026-04-19 04:52 23.98339 -104.98160 39957 ft 412 kts 248°
2026-04-19 04:52 23.96373 -105.04049 39961 ft 413 kts 248°
2026-04-19 04:53 23.94402 -105.09947 39993 ft 413 kts 248°
2026-04-19 04:53 23.92425 -105.15847 39982 ft 413 kts 248°
2026-04-19 04:54 23.90444 -105.21750 39999 ft 414 kts 248°
2026-04-19 04:54 23.88460 -105.27650 39980 ft 414 kts 248°
2026-04-19 04:55 23.86475 -105.33551 39988 ft 414 kts 248°
2026-04-19 04:55 23.84484 -105.39464 39985 ft 415 kts 248°
2026-04-19 04:56 23.82488 -105.45383 40004 ft 416 kts 248°
2026-04-19 04:56 23.80480 -105.51321 39991 ft 417 kts 248°
2026-04-19 04:57 23.78808 -105.56261 39992 ft 418 kts 248°
2026-04-19 04:57 23.76792 -105.62210 40003 ft 417 kts 248°
2026-04-19 04:58 23.74780 -105.68157 39989 ft 417 kts 248°
2026-04-19 04:58 23.72758 -105.74107 39989 ft 419 kts 248°
2026-04-19 04:59 23.70715 -105.80091 39937 ft 422 kts 248°
2026-04-19 04:59 23.68678 -105.86082 39910 ft 419 kts 248°
2026-04-19 05:00 23.66648 -105.92022 39982 ft 419 kts 248°
2026-04-19 05:00 23.64603 -105.98006 39943 ft 422 kts 248°
2026-04-19 05:01 23.62545 -106.04014 39948 ft 424 kts 248°
2026-04-19 05:01 23.60477 -106.10055 39928 ft 426 kts 248°
2026-04-19 05:02 23.58399 -106.16112 39935 ft 427 kts 248°
2026-04-19 05:02 23.56329 -106.22135 39924 ft 427 kts 248°
2026-04-19 05:03 23.54242 -106.28198 39920 ft 427 kts 248°
2026-04-19 05:03 23.52157 -106.34249 39923 ft 426 kts 248°
2026-04-19 05:04 23.50070 -106.40291 39891 ft 426 kts 248°
2026-04-19 05:04 23.47990 -106.46313 39914 ft 425 kts 248°
2026-04-19 05:05 23.45905 -106.52333 39921 ft 425 kts 248°
2026-04-19 05:05 23.43819 -106.58349 39920 ft 425 kts 248°
2026-04-19 05:06 23.41730 -106.64364 39923 ft 424 kts 248°
2026-04-19 05:06 23.39641 -106.70374 39928 ft 424 kts 248°
2026-04-19 05:07 23.37547 -106.76389 39926 ft 425 kts 248°
2026-04-19 05:07 23.35450 -106.82403 39929 ft 425 kts 248°
2026-04-19 05:08 23.32295 -106.91436 39937 ft 426 kts 248°
2026-04-19 05:09 23.30189 -106.97456 39937 ft 426 kts 248°
2026-04-19 05:09 23.28079 -107.03478 39938 ft 426 kts 248°
2026-04-19 05:10 23.25965 -107.09502 39941 ft 427 kts 248°
2026-04-19 05:10 23.23847 -107.15532 39943 ft 427 kts 248°
2026-04-19 05:11 23.21724 -107.21566 39946 ft 427 kts 248°
2026-04-19 05:11 23.19598 -107.27599 39945 ft 428 kts 248°
2026-04-19 05:12 23.17467 -107.33638 39954 ft 428 kts 248°
2026-04-19 05:12 23.15334 -107.39676 39950 ft 428 kts 248°
2026-04-19 05:13 23.13210 -107.45678 39948 ft 429 kts 248°
2026-04-19 05:13 23.11069 -107.51723 39951 ft 429 kts 248°
2026-04-19 05:14 23.08921 -107.57775 39950 ft 429 kts 248°
2026-04-19 05:14 23.06771 -107.63826 39951 ft 430 kts 248°
2026-04-19 05:15 23.04617 -107.69881 39935 ft 430 kts 248°
2026-04-19 05:15 23.02463 -107.75928 39961 ft 430 kts 248°
2026-04-19 05:16 23.00303 -107.81980 39949 ft 430 kts 248°
2026-04-19 05:16 22.98140 -107.88035 39952 ft 430 kts 248°
2026-04-19 05:17 22.95973 -107.94092 39814 ft 433 kts 248°
2026-04-19 05:17 22.94866 -107.97182 39156 ft 440 kts 247°
2026-04-19 05:17 22.93768 -108.00248 38677 ft 433 kts 247°
2026-04-19 05:17 22.92686 -108.03268 38061 ft 427 kts 247°
2026-04-19 05:18 22.91610 -108.06267 37237 ft 426 kts 247°
2026-04-19 05:18 22.90531 -108.09269 36286 ft 428 kts 247°
2026-04-19 05:18 22.89460 -108.12246 35347 ft 431 kts 248°
2026-04-19 05:18 22.88354 -108.15319 34393 ft 433 kts 248°
2026-04-19 05:19 22.87258 -108.18364 33365 ft 434 kts 248°
2026-04-19 05:19 22.86171 -108.21385 32144 ft 439 kts 248°
2026-04-19 05:19 22.85052 -108.24488 30812 ft 446 kts 248°
2026-04-19 05:19 22.83918 -108.27635 29774 ft 447 kts 248°
2026-04-19 05:20 22.82793 -108.30753 28874 ft 442 kts 248°
2026-04-19 05:20 22.81681 -108.33836 28049 ft 437 kts 248°
2026-04-19 05:20 22.80580 -108.36885 27271 ft 432 kts 248°
2026-04-19 05:20 22.79489 -108.39904 26522 ft 428 kts 248°
2026-04-19 05:21 22.78408 -108.42893 25796 ft 424 kts 247°
2026-04-19 05:21 22.77336 -108.45852 25064 ft 421 kts 247°
2026-04-19 05:21 22.76270 -108.48794 24345 ft 418 kts 247°
2026-04-19 05:21 22.75463 -108.51774 23631 ft 414 kts 259°
2026-04-19 05:22 22.75405 -108.54898 22867 ft 417 kts 272°
2026-04-19 05:22 22.76007 -108.57968 22160 ft 417 kts 284°
2026-04-19 05:22 22.77017 -108.60906 21510 ft 414 kts 287°
2026-04-19 05:22 22.78056 -108.63809 20853 ft 412 kts 287°
2026-04-19 05:23 22.79081 -108.66694 20223 ft 409 kts 287°
2026-04-19 05:23 22.80083 -108.69564 19590 ft 407 kts 287°
2026-04-19 05:23 22.81068 -108.72428 18963 ft 405 kts 287°
2026-04-19 05:23 22.82043 -108.75291 18322 ft 404 kts 287°
2026-04-19 05:24 22.83010 -108.78146 17621 ft 403 kts 287°
2026-04-19 05:24 22.83972 -108.80988 16966 ft 400 kts 287°
2026-04-19 05:24 22.84928 -108.83810 16327 ft 398 kts 287°
2026-04-19 05:24 22.85879 -108.86623 15711 ft 396 kts 287°
2026-04-19 05:25 22.86826 -108.89421 15100 ft 394 kts 287°
2026-04-19 05:25 22.87772 -108.92208 14475 ft 394 kts 287°
2026-04-19 05:25 22.88716 -108.94992 13848 ft 393 kts 287°
2026-04-19 05:25 22.89657 -108.97770 13166 ft 392 kts 287°
2026-04-19 05:26 22.90596 -109.00543 12539 ft 391 kts 287°
2026-04-19 05:26 22.91529 -109.03300 11916 ft 388 kts 287°
2026-04-19 05:26 22.92456 -109.06043 11335 ft 386 kts 287°
2026-04-19 05:26 22.93377 -109.08765 10891 ft 380 kts 287°
2026-04-19 05:27 22.94271 -109.11409 10701 ft 368 kts 287°
2026-04-19 05:27 22.95136 -109.13968 10521 ft 355 kts 288°
2026-04-19 05:27 22.95972 -109.16447 10365 ft 344 kts 287°
2026-04-19 05:27 22.96780 -109.18846 10215 ft 333 kts 288°
2026-04-19 05:28 22.97563 -109.21171 10081 ft 323 kts 288°
2026-04-19 05:28 22.98322 -109.23427 9920 ft 315 kts 288°
2026-04-19 05:28 22.99066 -109.25638 9712 ft 308 kts 287°
2026-04-19 05:28 22.99791 -109.27794 9517 ft 298 kts 287°
2026-04-19 05:29 23.00369 -109.29880 9137 ft 283 kts 274°
2026-04-19 05:29 23.00291 -109.31988 8619 ft 277 kts 262°
2026-04-19 05:29 23.00106 -109.34062 8241 ft 274 kts 263°
2026-04-19 05:29 22.99944 -109.36108 7907 ft 270 kts 263°
2026-04-19 05:30 22.99790 -109.38124 7594 ft 266 kts 263°
2026-04-19 05:30 22.99641 -109.40112 7269 ft 263 kts 263°
2026-04-19 05:30 22.99495 -109.42072 6978 ft 266 kts 263°
2026-04-19 05:30 22.99348 -109.44073 6667 ft 265 kts 264°
2026-04-19 05:31 22.99202 -109.46057 6359 ft 262 kts 264°
2026-04-19 05:31 22.99059 -109.48024 6035 ft 263 kts 264°
2026-04-19 05:31 22.98915 -109.49993 5707 ft 260 kts 264°
2026-04-19 05:31 22.98772 -109.51948 5393 ft 261 kts 264°
2026-04-19 05:32 22.98628 -109.53922 5085 ft 264 kts 264°
2026-04-19 05:32 22.98482 -109.55911 4772 ft 264 kts 264°
2026-04-19 05:32 22.98337 -109.57890 4444 ft 262 kts 264°
2026-04-19 05:32 22.98194 -109.59848 4126 ft 259 kts 263°
2026-04-19 05:33 22.98043 -109.61778 3865 ft 254 kts 263°
2026-04-19 05:33 22.97863 -109.63653 3634 ft 246 kts 262°
2026-04-19 05:33 22.97683 -109.65479 3414 ft 240 kts 262°
2026-04-19 05:33 22.97526 -109.67252 3191 ft 230 kts 269°
2026-04-19 05:34 22.97922 -109.68866 3004 ft 220 kts 304°
2026-04-19 05:34 22.99034 -109.69930 2830 ft 210 kts 331°
2026-04-19 05:34 23.00356 -109.70419 2634 ft 193 kts 351°
2026-04-19 05:34 23.01676 -109.70585 2545 ft 190 kts 353°
2026-04-19 05:35 23.02969 -109.70720 2400 ft 184 kts 353°
2026-04-19 05:35 23.04234 -109.70855 2216 ft 180 kts 352°
2026-04-19 05:35 23.05468 -109.70989 2117 ft 181 kts 352°
2026-04-19 05:35 23.06721 -109.71085 2046 ft 182 kts 356°
2026-04-19 05:36 23.07952 -109.71147 1852 ft 166 kts 354°
2026-04-19 05:36 23.09020 -109.71311 1570 ft 146 kts 346°
2026-04-19 05:36 23.09977 -109.71502 1280 ft 136 kts 349°
2026-04-19 05:36 23.10900 -109.71592 1011 ft 132 kts 354°
2026-04-19 05:37 23.11812 -109.71666 811 ft 132 kts 355°
2026-04-19 05:37 23.12706 -109.71781 635 ft 125 kts 352°
2026-04-19 05:37 23.13555 -109.71883 453 ft 120 kts 354°
2026-04-19 05:37 23.14398 -109.71975 371 ft 124 kts 353°
2026-04-19 05:38 23.15234 -109.72084 369 ft 118 kts 352°
2026-04-19 05:38 23.15916 -109.72159 379 ft 76 kts 354°
2026-04-19 05:38 23.16199 -109.72190 387 ft 28 kts 354°
2026-04-19 05:38 23.16368 -109.72209 391 ft 23 kts 354°
2026-04-19 05:39 23.16468 -109.72221 393 ft 0 kts 354°
2026-04-19 05:39 23.16486 -109.72222 394 ft 10 kts 357°
2026-04-19 05:39 23.16587 -109.72170 392 ft 20 kts 49°
2026-04-19 05:39 23.16592 -109.72038 391 ft 14 kts 136°
2026-04-19 05:40 23.16494 -109.72016 393 ft 16 kts 175°
2026-04-19 05:40 23.16375 -109.72001 390 ft 19 kts 173°
2026-04-19 05:40 23.16309 -109.71992 388 ft 2 kts 173°
2026-04-19 05:40 23.16193 -109.71980 386 ft 27 kts 175°
2026-04-19 05:41 23.16147 -109.71939 385 ft 9 kts 93°
2026-04-19 05:41 23.16159 -109.71867 385 ft 10 kts 82°
2026-04-19 05:41 23.16162 -109.71838 385 ft 0 kts 84°